STARLINK-4658, 53612

Orbit data source: Space-Track

STARLINK-4658, 53612 is a payload satellite owned by SpaceX/Seattle (US) in LEO that was launched on Sun, 28 Aug 2022 UTC via an FALCON 9 launch vehicle from the Air Force Eastern Test Range (AFETR). Payload-class satellites include a variety of spacecraft equipped with specific instruments for various scientific and technological missions. These include communications satellites like Starlink; space stations such as the ISS; scientific satellites like the Hubble; Earth observation satellites from companies like Planet Labs, Umbra, and HawkEye 360; GPS; miniature CubeSats for education and research; and military/defense satellites.

Loading next visibility...
Identifier
53612, 2022-104AA
Orbit
LEO
Last TLE update
14 hours ago
Origin
Manufacturer
SpaceX/Seattle
Mission
Operational Commercial Communications
Bus & Motor
STARLINK, Unknown motor
Mass
300 kg wet, ~290 kg dry
Launch date (UTC)
2022-08-28 (3 years ago)
Launch vehicle
FALCON 9
Launch site
Air Force Eastern Test Range (AFETR)
Object type
Payload
Rocket body
Debris
Shape & HBR
Box + 1 Pan, 8.86 m
Radar Cross Section
13.562 m², Large (>1 m²)

Expand to show TLE details & history

TLE from 14 hours ago
0 STARLINK-4658
1 53612U 22104AA  25191.44761343  .00000367  00000-0  41130-4 0  9995
2 53612  53.2164 241.6634 0001106  84.5202 275.5916 15.08836935159069
Epoch: 2025-07-10T10:44Z
TLE epoch observation values (Epoch: 2025-07-10T10:44:33.8Z)
Latitude
-0.00004°
Longitude
151.90878°
Altitude
540.576 km
Speed
7.593 km/s
True Right ascension
16h 06m 39s
True Declination
0° 00' 00"
Sunlit
Object was in full shadow at epoch
Visualization orbit readout
Latitude
-36.65477°
Longitude
2.93592°
Altitude
552.155 km
Speed
7.585 km/s
Apparent Right ascension
03h 40m 06s
Apparent Declination
-45° 54' 29"
Sunlit
Object is in daylight
Visualization observer readout
Local Sidereal Time
12:44:14
Azimuth
244.586° WSW
Elevation
-57.668°
Doppler factor
1
Orbital elements
Apogee altitude
540.763 km
Perigee altitude
539.233 km
Semi-major axis
6,918.135 km
Eccentricity
0.00011
Inclination
53.2164°
RAAN
241.6634°
Arg. of periapsis
84.5202°
True anomaly
Unknown
Mean anomaly
275.5916°
Eccentric anomaly
Unknown
Mean motion
3.7719 °/min
Orbital period
95.44 mins
BSTAR
0.00004113
Loading maneuver chart data...
Loading SW <> Apogee altitude chart data...
Loading historical data...
Loading historical data...
Loading historical data...
Loading historical data...
Loading historical data...
Loading historical data...
Loading historical data...

STARLINK-4658 Visibility forecast

Observer location: undefined°, undefined°

Span
Click to sort rows by Start time (UTC) header in descending order
Start Az.
Max El. time (UTC)
Max El. Az.
Max El.
End time (UTC)
End Az.
8 mins2025-07-11 05:58:59.827Z224.638° SW2025-07-11 06:02:59.827Z140.543° SSE44.56°2025-07-11 06:06:59.827Z51.999° ENE
4 mins2025-07-11 07:40:59.827Z302.057° NW2025-07-11 07:42:59.827Z342.562° N20.409°2025-07-11 07:44:59.827Z18.758° NNE
6 mins2025-07-11 12:40:59.827Z315.104° NNW2025-07-11 12:43:59.827Z56.224° ENE43.803°2025-07-11 12:46:59.827Z123.096° SE
|